Weather in Chudniv

Ukraine / Zhytomyr Region     50°03′09″N   28°07′06″E
temp.,
°C
wind,
m/s
gust,
m/s
humid.,
%
clouds,
%
prec.,
mm/h
press.,
hPa
HPBL,
m
15 august, mon
mon1500:00+22ene61458100 0.0 1010446
03:00+19ene51274100 0.0 1010261
06:00+18ene4976100 0.0 1010221
09:00+22ene5962100 0.0 1010342
12:00+26e694794 0.0 1010899
15:00+29ene7937100 0.0 10081476
18:00+27ene61045100 0.0 1008865
21:00+23ene51150100 0.0 1008311
16 august, tue
tue1600:00+21ne41257100 0.0 1008341
03:00+23ne61350100 0.0 1007519
06:00+19ne41176100 0.4 1006233
09:00+21ene5868100 0.6 1006417
12:00+26se6848100 0.0 10071614
15:00+27sse5848100 0.0 10071935
18:00+20ese71184100 1.2 1009452
21:00+18ene489298 1.3 1010290
17 august, wed
wed1700:00+17ene3695100 0.1 1010214
03:00+17ene2397100 0.1 100993
06:00+16ene249878 0.0 1009117
09:00+19e348679 0.0 1009441
12:00+22ese347293 0.2 1010811
15:00+23e457083 2.4 1010873
18:00+22e238028 3.0 1010145
21:00+18ese118896 3.3 101011
18 august, thu
thu1800:00+19e238787 0.2 101139
03:00+17n2292100 0.2 101112
06:00+17nne2293100 0.0 101132
09:00+21nne238131 0.7 1011234
12:00+26nne565594 0.0 1011894
15:00+29ne56415 0.0 10111617
18:00+29nne46425 0.0 10101343
21:00+22n46587 0.0 101181
19 august, fri
fri1900:00+20ne47610 0.0 1011124
03:00+18ne36670 0.0 1012101
06:00+17nne34750 0.0 101263
09:00+22ne35610 0.0 1012294
12:00+27ne44460 0.0 1012848
15:00+30ne34370 0.0 10111827
18:00+29nne33401 0.0 10111969
21:00+23ne33600 0.0 101131